FENGYUN 1C DEB, 31324

Orbit data source: Space-Track

FENGYUN 1C DEB, 31324 is space debris in SSO originally from a launch on Mon, 10 May 1999 UTC launched from the Taiyaun Space Center, China (TSC). Fengyun 1C debris stems from the Chinese weather satellite Fengyun-1C, which was intentionally destroyed by a Chinese anti-satellite missile in 2007. This event dramatically increased the amount of space debris, with thousands of trackable fragments posing hazards to satellites and human spaceflight. The Fengyun 1C debris cloud has become a focal point in discussions about space sustainability and the need for international regulations to prevent the creation of new debris.

Loading next visibility...
Identifier
31324, 1999-025BQC
Orbit
SSO
Country
Flag of CNCN / PRC
Related business
Manufacturer
Unknown
Mission
Spacecraft
Bus & Motor
Unknown
Mass
Unknown
Launch date (UTC)
1999-05-10 (27 years ago)
Launch vehicle
Unknown
Launch site
Taiyaun Space Center, China (TSC)
Object type
Payload
Rocket body
Debris
Shape & HBR
Unknown shape, 0.1 m
Radar Cross Section
Small (<0.1 m²)

Expand to show TLE details & history
Last TLE update: 3 days ago

TLE from 3 days ago
0 FENGYUN 1C DEB
1 31324U 99025BQC 26205.58994687  .00000193  00000-0  12266-3 0  9992
2 31324  99.1302 137.0778 0050627  33.1898 327.2433 14.14824291996514
Epoch: 2026-07-24T14:09Z
TLE epoch observation values (Epoch: 2026-07-24T14:09:31.409Z)
Latitude
-0.00003°
Longitude
-17.61747°
Altitude
815.108 km
Speed
7.461 km/s
True Right ascension
09h 08m 18s
True Declination
0° 00' 00"
Sunlit
Object was in daylight at epoch
Visualization orbit readout
Latitude
Unknown
Longitude
Unknown
Altitude
Unknown
Speed
Unknown
Apparent Right ascension
Unknown
Apparent Declination
Unknown
Sunlit
N/A
Visualization observer readout
Local Sidereal Time
10:05:25
Azimuth
Unknown
Elevation
Unknown
Doppler factor
Unknown
Orbital elements
Apogee altitude
876.64 km
Perigee altitude
803.552 km
Semi-major axis
7,218.233 km
Eccentricity
0.00506
Inclination
99.1302°
RAAN
137.0778°
Arg. of periapsis
33.1898°
True anomaly
326.92772°
Mean anomaly
327.2433°
Eccentric anomaly
327.08568°
Mean motion
3.53913 °/min
Orbital period
101.72 mins
BSTAR
0.00012266
Loading maneuver chart data...
Computing Atmospheric mass density...

Documentation

Showing up to 5 results
|